Weather History for Meridian NAS, MS

Change the Weather History Date:

Thursday, March 7, 2013

  Actual Average Record
Temperature  
Mean Temperature 44 °F -  
Max Temperature 60 °F 62 °F 81 °F (2009)
Min Temperature 28 °F 41 °F 28 °F (2013)
Degree Days  
Heating Degree Days 21    
Moisture  
Dew Point 29 °F    
Average Humidity 62    
Maximum Humidity 89    
Minimum Humidity 29    
Precipitation  
Precipitation 0.00 in - - ()
Sea Level Pressure  
Sea Level Pressure 30.34 in    
Wind  
Wind Speed 4 mph (North)    
Max Wind Speed 8 mph    
Max Gust Speed -    
Visibility 10 miles    
Events      
Averages and records for this station are not official NWS values.
T = Trace of Precipitation, MM = Missing Value Source: NWS Daily Summary

Daily Weather History Graph

Daily Weather History Graph

Search for Another Location

Airport:

Trip Planner

Search our weather history database for the weather conditions in past years. The results will help you decide how hot, cold, wet, or windy it might be!

Date:

Astronomy

Mar. 07, 2013 Rise Set
Actual Time 6:14 AM CST 5:56 PM CST
Civil Twilight 5:49 AM CST 6:21 PM CST
Nautical Twilight 5:21 AM CST 6:49 PM CST
Astronomical Twilight 4:52 AM CST 7:18 PM CST
Moon 3:01 AM CST (3/7) 1:55 PM CST (3/7)
Length of Visible Light 12h 31m
Length of Day
11h 42m
Waning Crescent, 20% of the Moon is Illuminated
Mar 7
Waning Crescent
Mar 11
New
Mar 19
First Quarter
Mar 27
Full
Apr 2
Last Quarter

Hourly Weather History & Observations

Time (CST) Temp. Windchill Dew Point Humidity Pressure Visibility Wind Dir Wind Speed Gust Speed Precip Events Conditions
12:56 AM 30.0 °F 25.2 °F 27.0 °F 88% 30.35 in 10.0 mi NW 4.6 mph - N/A   Clear
1:56 AM 28.9 °F 23.9 °F 26.1 °F 89% 30.34 in 9.0 mi NNW 4.6 mph - N/A   Clear
2:56 AM 30.0 °F 26.5 °F 27.0 °F 88% 30.33 in 9.0 mi WNW 3.5 mph - N/A   Clear
3:56 AM 30.0 °F 25.2 °F 27.0 °F 88% 30.33 in 9.0 mi North 4.6 mph - N/A   Clear
4:56 AM 30.9 °F 25.2 °F 27.0 °F 85% 30.35 in 9.0 mi NNW 5.8 mph - N/A   Clear
5:56 AM 32.0 °F 28.7 °F 27.0 °F 82% 30.37 in 10.0 mi NNW 3.5 mph - N/A   Clear
6:56 AM 33.1 °F - 27.0 °F 78% 30.38 in 10.0 mi Calm Calm - N/A   Mostly Cloudy
7:56 AM 36.0 °F 33.3 °F 28.0 °F 73% 30.40 in 10.0 mi North 3.5 mph - N/A   Mostly Cloudy
8:56 AM 39.9 °F 35.8 °F 28.0 °F 63% 30.43 in 10.0 mi North 5.8 mph - N/A   Scattered Clouds
9:56 AM 45.0 °F 40.6 °F 28.0 °F 52% 30.42 in 10.0 mi NNE 8.1 mph - N/A   Clear
10:56 AM 48.0 °F - 28.0 °F 46% 30.40 in 10.0 mi North 6.9 mph - N/A   Mostly Cloudy
11:56 AM 52.0 °F - 27.0 °F 38% 30.38 in 10.0 mi Variable 3.5 mph - N/A   Scattered Clouds
12:56 PM 54.0 °F - 27.0 °F 35% 30.33 in 10.0 mi Calm Calm - N/A   Scattered Clouds
1:56 PM 57.0 °F - 28.0 °F 33% 30.32 in 10.0 mi NNW 5.8 mph - N/A   Scattered Clouds
2:56 PM 59.0 °F - 27.0 °F 29% 30.30 in 10.0 mi North 4.6 mph - N/A   Partly Cloudy
3:56 PM 60.1 °F - 28.0 °F 30% 30.30 in 10.0 mi Calm Calm - N/A   Mostly Cloudy
4:56 PM 59.0 °F - 28.0 °F 31% 30.29 in 10.0 mi North 5.8 mph - N/A   Mostly Cloudy
5:56 PM 55.0 °F - 30.9 °F 40% 30.30 in 10.0 mi NE 4.6 mph - N/A   Scattered Clouds
6:56 PM 51.1 °F - 33.1 °F 50% 30.31 in 10.0 mi ENE 4.6 mph - N/A   Scattered Clouds
7:56 PM 50.0 °F - 32.0 °F 50% 30.31 in 10.0 mi Calm Calm - N/A   Clear
8:56 PM 41.0 °F - 34.0 °F 76% 30.31 in 10.0 mi Calm Calm - N/A   Clear
9:56 PM 41.0 °F - 34.0 °F 76% 30.31 in 10.0 mi Calm Calm - N/A   Clear
10:56 PM 37.0 °F - 33.1 °F 86% 30.32 in 10.0 mi Calm Calm - N/A   Clear
11:56 PM 36.0 °F - 33.1 °F 89% 30.32 in 10.0 mi Calm Calm - N/A   Clear